Location: Rumah Long Bangan
(2.8362°N, 113.7519°E)
Time: 19:14:49
(UTC+00:00)

Cosmos 2151 Rocket - Pass Details

Date: 24 October 2021
Orbit: 618 x 641 km, 82.5° (Epoch: 08 December)

Event Time Altitude Azimuth Distance (km) Brightness Sun altitude
Exits shadow 20:20:55 62° 126° (SE) 708 3.9 -27.0°
Drops below altitude 10° 20:24:53 10° 169° (S) 2,015 6.4 -26.1°
Sets 20:27:08 0° 172° (S) 2,928 7.3 -25.5°
